| time (UTC) | temp F | wind direction | speed MPH | gust MPH | rain 1hr in | rain 24hr in | rain mn in | humidity % | barometer mb |
| 20260509123813 | 0 | 143 | 1.0 | 2.0 | 0.00 | 0.05 | 0.05 | 1008.4 | |
| 20260509123310 | 0 | 137 | 1.0 | 3.0 | 0.07 | 0.05 | 0.05 | 1008.5 | |
| 20260509122805 | 0 | 132 | 2.0 | 3.0 | 0.07 | 0.05 | 0.05 | 1008.4 | |
| 20260509122305 | 0 | 134 | 2.0 | 2.0 | 0.00 | 0.04 | 0.04 | 1008.6 | |
| 20260509121759 | 0 | 118 | 1.0 | 1.0 | 0.05 | 0.04 | 0.04 | 1008.6 | |
| 20260509121256 | 0 | 137 | 1.0 | 2.0 | 0.05 | 0.04 | 0.04 | 1008.5 | |
| 20260509120755 | 0 | 129 | 1.0 | 1.0 | 0.00 | 0.03 | 0.03 | 1008.6 | |
| 20260509120252 | 0 | 133 | 1.0 | 1.0 | 0.07 | 0.03 | 0.03 | 1008.9 | |
| 20260509115750 | 0 | 135 | 0.0 | 0.0 | 0.07 | 0.02 | 0.02 | 1008.9 | |
| 20260509115247 | 0 | 135 | 0.0 | 1.0 | 0.07 | 0.02 | 0.02 | 1008.8 | |
| 20260509114745 | 0 | 144 | 0.0 | 0.0 | 0.05 | 0.01 | 0.01 | 1008.9 | |
| 20260509114244 | 0 | 143 | 0.0 | 0.0 | 0.05 | 0.01 | 0.01 | 1008.9 | |
| 20260509113742 | 0 | 138 | 0.0 | 1.0 | 0.00 | 0.00 | 0.00 | 1008.8 | |
| 20260509113239 | 0 | 143 | 0.0 | 2.0 | 0.00 | 0.00 | 0.00 | 1008.8 | |
| 20260509112735 | 0 | 128 | 0.0 | 1.0 | 0.00 | 0.00 | 0.00 | 1008.8 | |
| 20260509112232 | 0 | 124 | 1.0 | 1.0 | 0.00 | 0.00 | 0.00 | 1008.9 | |
| 20260509111729 | 0 | 120 | 1.0 | 2.0 | 0.00 | 0.00 | 0.00 | 1008.9 | |
| 20260509111226 | 0 | 117 | 1.0 | 2.0 | 0.00 | 0.00 | 0.00 | 1008.9 | |
| 20260509110724 | 0 | 120 | 1.0 | 1.0 | 0.00 | 0.00 | 0.00 | 1008.6 | |
| 20260509110220 | 0 | 142 | 1.0 | 2.0 | 0.00 | 0.00 | 0.00 | 1008.5 | |
| 20260509105719 | 0 | 133 | 0.0 | 0.0 | 0.00 | 0.00 | 0.00 | 1008.5 | |
| 20260509105216 | 0 | 133 | 0.0 | 0.0 | 0.00 | 0.00 | 0.00 | 1008.5 | |
| 20260509104713 | 0 | 133 | 0.0 | 0.0 | 0.00 | 0.00 | 0.00 | 1008.6 | |
| 20260509104210 | 0 | 133 | 0.0 | 0.0 | 0.00 | 0.00 | 0.00 | 1008.3 | |
| 20260509103708 | 0 | 133 | 0.0 | 0.0 | 0.00 | 0.00 | 0.00 | 1008.5 | |
| 20260509103204 | 0 | 133 | 0.0 | 0.0 | 0.00 | 0.00 | 0.00 | 1008.4 | |
| 20260509102703 | 0 | 133 | 0.0 | 0.0 | 0.00 | 0.00 | 0.00 | 1008.3 | |
| 20260509102200 | 0 | 133 | 0.0 | 0.0 | 0.00 | 0.00 | 0.00 | 1008.3 | |
| 20260509101656 | 0 | 133 | 0.0 | 0.0 | 0.00 | 0.00 | 0.00 | 1008.3 | |
| 20260509101152 | 0 | 133 | 0.0 | 0.0 | 0.00 | 0.00 | 0.00 | 1008.4 | |
| 20260509100650 | 0 | 135 | 0.0 | 0.0 | 0.00 | 0.00 | 0.00 | 1008.5 | |
| 20260509100147 | 0 | 141 | 0.0 | 0.0 | 0.00 | 0.00 | 0.00 | 1008.8 | |
| 20260509095643 | 0 | 140 | 0.0 | 1.0 | 0.00 | 0.00 | 0.00 | 1008.5 | |
| 20260509095141 | 0 | 140 | 0.0 | 1.0 | 0.00 | 0.00 | 0.00 | 1008.2 | |
| 20260509094637 | 0 | 170 | 0.0 | 1.0 | 0.00 | 0.00 | 0.00 | 1008.1 | |
| 20260509094134 | 0 | 171 | 1.0 | 1.0 | 0.00 | 0.00 | 0.00 | 1008.5 | |
| 20260509093633 | 0 | 172 | 0.0 | 0.0 | 0.00 | 0.00 | 0.00 | 1008.3 | |
| 20260509093129 | 0 | 170 | 0.0 | 1.0 | 0.00 | 0.00 | 0.00 | 1008.2 | |
| 20260509092627 | 0 | 172 | 0.0 | 0.0 | 0.00 | 0.00 | 0.00 | 1008.3 | |
| 20260509092125 | 0 | 172 | 0.0 | 0.0 | 0.00 | 0.00 | 0.00 | 1008.1 | |
| 20260509091624 | 0 | 172 | 0.0 | 0.0 | 0.00 | 0.00 | 0.00 | 1008.1 | |
| 20260509091119 | 0 | 170 | 0.0 | 0.0 | 0.00 | 0.00 | 0.00 | 1008.3 | |
| 20260509090617 | 0 | 196 | 0.0 | 0.0 | 0.00 | 0.00 | 0.00 | 1008.5 | |
| 20260509090114 | 0 | 249 | 0.0 | 0.0 | 0.00 | 0.00 | 0.00 | 1008.4 | |
| 20260509085612 | 0 | 249 | 0.0 | 1.0 | 0.00 | 0.00 | 0.00 | 1008.4 | |
| 20260509085107 | 0 | 116 | 1.0 | 1.0 | 0.00 | 0.00 | 0.00 | 1008.5 | |
| 20260509084605 | 0 | 116 | 0.0 | 0.0 | 0.00 | 0.00 | 0.00 | 1008.5 | |
| 20260509084057 | 0 | 116 | 0.0 | 1.0 | 0.00 | 0.00 | 0.00 | 1008.5 | |
| 20260509083554 | 0 | 221 | 0.0 | 1.0 | 0.00 | 0.00 | 0.00 | 1008.8 | |
| 20260509083050 | 0 | 297 | 0.0 | 0.0 | 0.00 | 0.00 | 0.00 | 1008.5 | |
| 20260509082548 | 0 | 297 | 0.0 | 0.0 | 0.00 | 0.00 | 0.00 | 1008.9 | |
| 20260509082045 | 0 | 297 | 0.0 | 0.0 | 0.00 | 0.00 | 0.00 | 1009.0 | |
| 20260509081542 | 0 | 298 | 0.0 | 0.0 | 0.00 | 0.00 | 0.00 | 1008.8 | |
| 20260509081038 | 0 | 298 | 1.0 | 1.0 | 0.00 | 0.00 | 0.00 | 1009.0 | |
| 20260509080537 | 0 | 297 | 0.0 | 0.0 | 0.00 | 0.00 | 0.00 | 1008.9 | |
| 20260509080035 | 0 | 298 | 0.0 | 0.0 | 0.00 | 0.00 | 0.00 | 1009.0 | |
| 20260509075531 | 0 | 299 | 0.0 | 1.0 | 0.00 | 0.00 | 0.00 | 1009.0 | |
| 20260509075030 | 0 | 299 | 0.0 | 0.0 | 0.00 | 0.00 | 0.00 | 1009.0 | |
| 20260509074526 | 0 | 299 | 0.0 | 0.0 | 0.00 | 0.00 | 0.00 | 1009.1 | |
| 20260509074023 | 0 | 299 | 0.0 | 0.0 | 0.00 | 0.00 | 0.00 | 1009.0 | |
| 20260509073519 | 0 | 301 | 0.0 | 1.0 | 0.00 | 0.00 | 0.00 | 1009.2 | |
| 20260509073016 | 0 | 328 | 1.0 | 2.0 | 0.00 | 0.00 | 0.00 | 1009.2 | |
| 20260509072513 | 0 | 321 | 1.0 | 2.0 | 0.00 | 0.00 | 0.00 | 1009.1 | |
| 20260509072009 | 0 | 317 | 0.0 | 1.0 | 0.00 | 0.00 | 0.00 | 1009.2 | |
| 20260509071506 | 0 | 317 | 0.0 | 0.0 | 0.00 | 0.00 | 0.00 | 1009.0 | |
| 20260509071004 | 0 | 317 | 0.0 | 0.0 | 0.00 | 0.00 | 0.00 | 1009.1 | |
| 20260509070501 | 0 | 317 | 0.0 | 0.0 | 0.00 | 0.00 | 0.00 | 1009.1 | |
| 20260509065956 | 0 | 317 | 0.0 | 1.0 | 0.00 | 0.00 | 0.00 | 1009.3 | |
| 20260509065452 | 0 | 318 | 1.0 | 2.0 | 0.00 | 0.00 | 0.00 | 1009.3 | |
| 20260509064948 | 0 | 133 | 0.0 | 1.0 | 0.00 | 0.00 | 0.00 | 1009.2 | |
| 20260509064446 | 0 | 134 | 0.0 | 1.0 | 0.00 | 0.00 | 0.00 | 1009.4 | |
| 20260509063944 | 0 | 133 | 0.0 | 1.0 | 0.00 | 0.00 | 0.00 | 1009.4 | |
| 20260509063444 | 0 | 144 | 0.0 | 1.0 | 0.00 | 0.00 | 0.00 | 1009.5 | |
| 20260509062942 | 0 | 129 | 1.0 | 2.0 | 0.00 | 0.00 | 0.00 | 1009.6 | |
| 20260509062439 | 0 | 239 | 0.0 | 0.0 | 0.00 | 0.00 | 0.00 | 1009.4 | |
| 20260509061937 | 0 | 240 | 0.0 | 0.0 | 0.00 | 0.00 | 0.00 | 1009.4 | |
| 20260509061434 | 0 | 240 | 0.0 | 0.0 | 0.00 | 0.00 | 0.00 | 1009.6 | |
| 20260509060931 | 0 | 240 | 0.0 | 0.0 | 0.00 | 0.00 | 0.00 | 1009.7 | |
| 20260509060429 | 0 | 240 | 0.0 | 0.0 | 0.00 | 0.00 | 0.00 | 1009.7 | |
| 20260509055924 | 0 | 236 | 0.0 | 0.0 | 0.00 | 0.00 | 0.00 | 1009.6 | |
| 20260509055419 | 0 | 240 | 0.0 | 0.0 | 0.00 | 0.00 | 0.00 | 1009.6 | |
| 20260509054916 | 0 | 236 | 0.0 | 0.0 | 0.00 | 0.00 | 0.00 | 1009.7 | |
| 20260509054413 | 0 | 241 | 0.0 | 0.0 | 0.00 | 0.00 | 0.00 | 1009.7 | |
| 20260509053911 | 0 | 240 | 0.0 | 1.0 | 0.00 | 0.00 | 0.00 | 1010.1 | |
| 20260509053409 | 0 | 240 | 0.0 | 0.0 | 0.00 | 0.00 | 0.00 | 1010.1 | |
| 20260509052906 | 0 | 226 | 1.0 | 1.0 | 0.00 | 0.00 | 0.00 | 1010.2 | |
| 20260509052403 | 0 | 240 | 0.0 | 0.0 | 0.00 | 0.00 | 0.00 | 1010.3 | |
| 20260509051901 | 0 | 240 | 0.0 | 0.0 | 0.00 | 0.00 | 0.00 | 1010.2 | |
| 20260509051359 | 0 | 221 | 0.0 | 0.0 | 0.00 | 0.00 | 0.00 | 1010.3 | |
| 20260509050856 | 0 | 220 | 1.0 | 2.0 | 0.00 | 0.00 | 0.00 | 1010.2 | |
| 20260509050352 | 0 | 65 | 0.0 | 1.0 | 0.00 | 0.00 | 0.00 | 1010.2 | |
| 20260509045849 | 0 | 299 | 1.0 | 2.0 | 0.00 | 0.00 | 0.00 | 1010.3 | |
| 20260509045346 | 0 | 298 | 0.0 | 0.0 | 0.00 | 0.00 | 0.00 | 1010.3 | |
| 20260509044843 | 0 | 299 | 1.0 | 1.0 | 0.00 | 0.00 | 0.00 | 1010.1 | |
| 20260509044340 | 0 | 296 | 0.0 | 1.0 | 0.00 | 0.00 | 0.00 | 1010.4 | |
| 20260509043836 | 0 | 296 | 0.0 | 0.0 | 0.00 | 0.00 | 0.00 | 1010.4 | |
| 20260509043333 | 0 | 296 | 0.0 | 0.0 | 0.00 | 0.00 | 0.00 | 1010.4 | |
| 20260509042829 | 0 | 296 | 0.0 | 0.0 | 0.00 | 0.00 | 0.00 | 1010.5 | |
| 20260509042326 | 0 | 296 | 0.0 | 0.0 | 0.00 | 0.00 | 0.00 | 1010.4 | |
| 20260509041823 | 0 | 297 | 0.0 | 0.0 | 0.00 | 0.00 | 0.00 | 1010.2 | |
| 20260509041320 | 0 | 296 | 0.0 | 0.0 | 0.00 | 0.00 | 0.00 | 1010.3 | |
| 20260509040818 | 0 | 296 | 0.0 | 0.0 | 0.00 | 0.00 | 0.00 | 1010.4 | |
| 20260509040315 | 0 | 297 | 0.0 | 0.0 | 0.00 | 0.00 | 0.00 | 1010.4 | |
| 20260509035812 | 0 | 296 | 0.0 | 0.0 | 0.00 | 0.16 | 0.16 | 1010.3 | |
| 20260509035309 | 0 | 296 | 0.0 | 1.0 | 0.00 | 0.16 | 0.16 | 1010.2 | |
| 20260509034805 | 0 | 296 | 0.0 | 0.0 | 0.00 | 0.16 | 0.16 | 1010.5 | |
| 20260509034303 | 0 | 296 | 0.0 | 0.0 | 0.00 | 0.16 | 0.16 | 1010.4 | |
| 20260509033800 | 0 | 296 | 1.0 | 1.0 | 0.00 | 0.16 | 0.16 | 1010.4 | |
| 20260509033257 | 0 | 296 | 0.0 | 0.0 | 0.00 | 0.16 | 0.16 | 1010.3 | |
| 20260509032754 | 0 | 297 | 0.0 | 0.0 | 0.00 | 0.16 | 0.16 | 1010.5 | |
| 20260509032251 | 0 | 297 | 0.0 | 1.0 | 0.00 | 0.16 | 0.16 | 1010.4 | |
| 20260509031748 | 0 | 296 | 0.0 | 0.0 | 0.00 | 0.16 | 0.16 | 1010.5 | |
| 20260509031246 | 0 | 296 | 0.0 | 0.0 | 0.00 | 0.16 | 0.16 | 1010.4 | |
| 20260509030744 | 0 | 296 | 0.0 | 0.0 | 0.00 | 0.16 | 0.16 | 1010.6 | |
| 20260509030241 | 0 | 296 | 0.0 | 0.0 | 0.00 | 0.16 | 0.16 | 1010.6 | |
| 20260509025738 | 0 | 296 | 0.0 | 1.0 | 0.00 | 0.16 | 0.16 | 1010.6 | |
| 20260509025233 | 0 | 295 | 0.0 | 1.0 | 0.00 | 0.16 | 0.16 | 1010.6 | |
| 20260509024728 | 0 | 296 | 0.0 | 1.0 | 0.00 | 0.16 | 0.16 | 1010.7 | |
| 20260509024224 | 0 | 295 | 0.0 | 0.0 | 0.00 | 0.16 | 0.16 | 1010.7 | |
| 20260509023722 | 0 | 296 | 0.0 | 0.0 | 0.00 | 0.16 | 0.16 | 1010.8 | |
| 20260509023219 | 0 | 296 | 1.0 | 1.0 | 0.00 | 0.16 | 0.16 | 1010.8 | |
| 20260509022715 | 0 | 297 | 0.0 | 0.0 | 0.00 | 0.16 | 0.16 | 1010.7 | |
| 20260509022214 | 0 | 297 | 0.0 | 0.0 | 0.00 | 0.16 | 0.16 | 1010.7 | |
| 20260509021710 | 0 | 297 | 1.0 | 1.0 | 0.00 | 0.16 | 0.16 | 1010.6 | |
| 20260509021208 | 0 | 314 | 0.0 | 1.0 | 0.00 | 0.16 | 0.16 | 1010.8 | |
| 20260509020705 | 0 | 315 | 1.0 | 2.0 | 0.00 | 0.16 | 0.16 | 1010.6 | |
| 20260509020202 | 0 | 293 | 2.0 | 2.0 | 0.00 | 0.16 | 0.16 | 1010.7 | |
| 20260509015701 | 0 | 292 | 0.0 | 1.0 | 0.00 | 0.16 | 0.16 | 1010.7 | |
| 20260509015158 | 0 | 292 | 1.0 | 1.0 | 0.00 | 0.16 | 0.16 | 1010.7 | |
| 20260509014654 | 0 | 292 | 1.0 | 2.0 | 0.00 | 0.16 | 0.16 | 1010.6 | |
| 20260509014150 | 0 | 292 | 1.0 | 2.0 | 0.00 | 0.16 | 0.16 | 1010.6 | |
| 20260509013648 | 0 | 292 | 0.0 | 1.0 | 0.00 | 0.16 | 0.16 | 1010.6 | |
| 20260509013143 | 0 | 286 | 0.0 | 1.0 | 0.00 | 0.16 | 0.16 | 1010.4 | |
| 20260509012640 | 0 | 286 | 1.0 | 1.0 | 0.00 | 0.16 | 0.16 | 1010.4 | |
| 20260509012137 | 0 | 297 | 0.0 | 1.0 | 0.00 | 0.16 | 0.16 | 1010.3 | |
| 20260509011635 | 0 | 282 | 0.0 | 1.0 | 0.00 | 0.16 | 0.16 | 1010.2 | |
| 20260509011132 | 0 | 282 | 1.0 | 1.0 | 0.00 | 0.16 | 0.16 | 1010.1 | |
| 20260509010630 | 0 | 281 | 1.0 | 1.0 | 0.00 | 0.16 | 0.16 | 1010.2 | |
| 20260509010126 | 0 | 281 | 0.0 | 0.0 | 0.00 | 0.16 | 0.16 | 1010.2 | |
| 20260509005624 | 0 | 281 | 0.0 | 1.0 | 0.00 | 0.16 | 0.16 | 1010.0 | |
| 20260509005120 | 0 | 282 | 1.0 | 2.0 | 0.00 | 0.16 | 0.16 | 1010.0 | |
| 20260509004616 | 0 | 303 | 2.0 | 2.0 | 0.00 | 0.16 | 0.16 | 1009.9 | |
| 20260509004113 | 0 | 295 | 2.0 | 2.0 | 0.00 | 0.16 | 0.16 | 1009.9 | |
| 20260509003612 | 0 | 294 | 1.0 | 2.0 | 0.00 | 0.16 | 0.16 | 1009.6 | |
| 20260509003109 | 0 | 302 | 2.0 | 2.0 | 0.00 | 0.16 | 0.16 | 1009.7 | |
| 20260509002606 | 0 | 287 | 2.0 | 2.0 | 0.00 | 0.16 | 0.16 | 1009.6 | |
| 20260509002103 | 0 | 284 | 1.0 | 1.0 | 0.00 | 0.16 | 0.16 | 1009.7 | |
| 20260509001601 | 0 | 277 | 0.0 | 1.0 | 0.00 | 0.16 | 0.16 | 1009.5 | |
| 20260509001056 | 0 | 277 | 1.0 | 1.0 | 0.00 | 0.16 | 0.16 | 1009.6 | |
| 20260509000555 | 0 | 277 | 1.0 | 1.0 | 0.00 | 0.16 | 0.16 | 1009.5 | |
| 20260509000050 | 0 | 279 | 1.0 | 2.0 | 0.00 | 0.16 | 0.16 | 1009.4 | |
| 20260508235548 | 0 | 310 | 1.0 | 1.0 | 0.00 | 0.16 | 0.16 | 1009.5 | |
| 20260508235044 | 0 | 330 | 1.0 | 1.0 | 0.00 | 0.16 | 0.16 | 1009.3 | |
| 20260508234542 | 0 | 273 | 1.0 | 2.0 | 0.00 | 0.16 | 0.16 | 1009.3 | |
| 20260508234039 | 0 | 267 | 1.0 | 1.0 | 0.00 | 0.16 | 0.16 | 1009.5 | |
| 20260508233538 | 0 | 252 | 1.0 | 2.0 | 0.00 | 0.16 | 0.16 | 1009.2 | |
| 20260508233035 | 0 | 246 | 1.0 | 1.0 | 0.00 | 0.16 | 0.16 | 1009.4 | |
| 20260508232532 | 0 | 245 | 1.0 | 2.0 | 0.00 | 0.16 | 0.16 | 1009.3 | |
| 20260508232029 | 0 | 323 | 1.0 | 2.0 | 0.00 | 0.16 | 0.16 | 1009.2 | |
| 20260508231526 | 0 | 319 | 3.0 | 4.0 | 0.00 | 0.16 | 0.16 | 1009.2 | |
| 20260508231023 | 0 | 304 | 4.0 | 6.0 | 0.00 | 0.16 | 0.16 | 1009.2 | |
| 20260508230520 | 0 | 334 | 4.0 | 6.0 | 0.00 | 0.16 | 0.16 | 1009.2 | |
| 20260508230017 | 0 | 339 | 2.0 | 3.0 | 0.00 | 0.16 | 0.16 | 1009.2 | |
| 20260508225514 | 0 | 299 | 2.0 | 4.0 | 0.00 | 0.16 | 0.16 | 1009.3 | |
| 20260508225011 | 0 | 270 | 1.0 | 2.0 | 0.00 | 0.16 | 0.16 | 1009.3 | |
| 20260508224509 | 0 | 308 | 2.0 | 2.0 | 0.00 | 0.16 | 0.16 | 1009.2 | |
| 20260508224005 | 0 | 255 | 3.0 | 7.0 | 0.00 | 0.16 | 0.16 | 1009.3 | |
| 20260508223504 | 0 | 2 | 3.0 | 3.0 | 0.00 | 0.16 | 0.16 | 1009.2 | |
| 20260508223000 | 0 | 326 | 4.0 | 7.0 | 0.00 | 0.16 | 0.16 | 1009.2 | |
| 20260508222458 | 0 | 350 | 4.0 | 6.0 | 0.00 | 0.16 | 0.16 | 1009.0 | |
| 20260508221954 | 0 | 307 | 5.0 | 7.0 | 0.00 | 0.16 | 0.16 | 1009.2 | |
| 20260508221450 | 0 | 341 | 3.0 | 7.0 | 0.00 | 0.16 | 0.16 | 1009.0 | |
| 20260508220946 | 0 | 230 | 2.0 | 3.0 | 0.00 | 0.16 | 0.16 | 1009.3 | |
| 20260508220443 | 0 | 315 | 3.0 | 9.0 | 0.00 | 0.16 | 0.16 | 1009.3 | |
| 20260508215939 | 0 | 245 | 3.0 | 9.0 | 0.00 | 0.16 | 0.16 | 1009.5 | |
| 20260508215437 | 0 | 337 | 5.0 | 9.0 | 0.00 | 0.16 | 0.16 | 1009.6 | |
| 20260508214933 | 0 | 299 | 7.0 | 11.0 | 0.00 | 0.16 | 0.16 | 1009.4 | |
| 20260508214431 | 0 | 336 | 8.0 | 10.0 | 0.00 | 0.16 | 0.16 | 1009.4 | |
| 20260508213926 | 0 | 282 | 2.0 | 7.0 | 0.00 | 0.16 | 0.16 | 1009.5 | |
| 20260508213424 | 0 | 325 | 6.0 | 9.0 | 0.00 | 0.16 | 0.16 | 1009.4 | |
| 20260508212925 | 0 | 338 | 6.0 | 10.0 | 0.00 | 0.16 | 0.16 | 1009.3 | |
| 20260508212422 | 0 | 314 | 9.0 | 15.0 | 0.00 | 0.16 | 0.16 | 1009.4 | |
| 20260508211918 | 0 | 286 | 5.0 | 8.0 | 0.00 | 0.16 | 0.16 | 1009.5 | |
| 20260508211413 | 0 | 314 | 9.0 | 11.0 | 0.00 | 0.16 | 0.16 | 1009.3 | |
| 20260508210906 | 0 | 294 | 11.0 | 13.0 | 0.00 | 0.16 | 0.16 | 1009.5 | |
| 20260508210402 | 0 | 296 | 9.0 | 10.0 | 0.00 | 0.16 | 0.16 | 1009.5 | |
| 20260508205858 | 0 | 305 | 7.0 | 11.0 | 0.00 | 0.16 | 0.16 | 1009.5 | |
| 20260508205355 | 0 | 349 | 5.0 | 14.0 | 0.00 | 0.16 | 0.16 | 1009.6 | |
| 20260508204851 | 0 | 331 | 7.0 | 13.0 | 0.00 | 0.16 | 0.16 | 1009.6 | |
| 20260508204349 | 0 | 310 | 8.0 | 10.0 | 0.00 | 0.16 | 0.16 | 1009.6 | |
| 20260508203844 | 0 | 344 | 6.0 | 8.0 | 0.00 | 0.16 | 0.16 | 1009.7 | |
| 20260508203341 | 0 | 44 | 4.0 | 13.0 | 0.00 | 0.16 | 0.16 | 1009.9 | |
| 20260508202836 | 0 | 318 | 2.0 | 7.0 | 0.00 | 0.16 | 0.16 | 1009.6 | |
| 20260508202334 | 0 | 340 | 4.0 | 7.0 | 0.00 | 0.16 | 0.16 | 1009.7 | |
| 20260508201831 | 0 | 224 | 4.0 | 8.0 | 0.00 | 0.16 | 0.16 | 1010.1 | |
| 20260508201328 | 0 | 289 | 5.0 | 7.0 | 0.00 | 0.16 | 0.16 | 1009.9 | |
| 20260508200824 | 0 | 321 | 5.0 | 6.0 | 0.00 | 0.16 | 0.16 | 1009.7 | |
| 20260508200321 | 0 | 272 | 6.0 | 7.0 | 0.00 | 0.16 | 0.16 | 1010.0 | |
| 20260508195817 | 0 | 259 | 5.0 | 10.0 | 0.00 | 0.16 | 0.16 | 1010.1 | |
| 20260508195314 | 0 | 260 | 9.0 | 10.0 | 0.00 | 0.16 | 0.16 | 1010.1 | |
| 20260508194810 | 0 | 313 | 6.0 | 9.0 | 0.00 | 0.16 | 0.16 | 1010.1 | |
| 20260508194307 | 0 | 331 | 5.0 | 6.0 | 0.00 | 0.16 | 0.16 | 1010.4 | |
| 20260508193804 | 0 | 320 | 9.0 | 13.0 | 0.00 | 0.16 | 0.16 | 1010.3 | |
| 20260508193301 | 0 | 330 | 6.0 | 13.0 | 0.00 | 0.16 | 0.16 | 1010.3 | |
| 20260508192757 | 0 | 329 | 8.0 | 14.0 | 0.00 | 0.16 | 0.16 | 1010.2 | |
| 20260508192254 | 0 | 322 | 3.0 | 6.0 | 0.00 | 0.16 | 0.16 | 1010.4 | |
| 20260508191751 | 0 | 235 | 6.0 | 8.0 | 0.00 | 0.16 | 0.16 | 1010.3 | |
| 20260508191248 | 0 | 281 | 9.0 | 11.0 | 0.00 | 0.16 | 0.16 | 1010.2 | |
| 20260508190746 | 0 | 328 | 6.0 | 7.0 | 0.00 | 0.16 | 0.16 | 1010.2 | |
| 20260508190241 | 0 | 293 | 11.0 | 11.0 | 0.00 | 0.16 | 0.16 | 1010.3 | |
| 20260508185738 | 0 | 326 | 9.0 | 11.0 | 0.00 | 0.16 | 0.16 | 1010.5 | |
| 20260508185236 | 0 | 327 | 9.0 | 11.0 | 0.00 | 0.16 | 0.16 | 1010.5 | |
| 20260508184733 | 0 | 292 | 6.0 | 8.0 | 0.00 | 0.16 | 0.16 | 1010.4 | |
| 20260508184230 | 0 | 324 | 4.0 | 11.0 | 0.00 | 0.16 | 0.16 | 1010.5 | |
| 20260508183726 | 0 | 337 | 7.0 | 16.0 | 0.00 | 0.16 | 0.16 | 1010.6 | |
| 20260508183222 | 0 | 309 | 8.0 | 14.0 | 0.00 | 0.16 | 0.16 | 1010.5 | |
| 20260508182718 | 0 | 284 | 6.0 | 8.0 | 0.00 | 0.16 | 0.16 | 1010.7 | |
| 20260508182216 | 0 | 267 | 4.0 | 11.0 | 0.00 | 0.16 | 0.16 | 1010.9 | |
| 20260508181712 | 0 | 306 | 13.0 | 15.0 | 0.00 | 0.16 | 0.16 | 1010.7 | |
| 20260508181209 | 0 | 276 | 6.0 | 9.0 | 0.00 | 0.16 | 0.16 | 1011.0 | |
| 20260508180705 | 0 | 320 | 9.0 | 11.0 | 0.00 | 0.16 | 0.16 | 1011.0 | |
| 20260508180202 | 0 | 244 | 4.0 | 6.0 | 0.00 | 0.16 | 0.16 | 1011.0 | |
| 20260508175659 | 0 | 303 | 6.0 | 9.0 | 0.00 | 0.16 | 0.16 | 1011.0 | |
| 20260508175155 | 0 | 338 | 7.0 | 14.0 | 0.00 | 0.16 | 0.16 | 1011.2 | |
| 20260508174653 | 0 | 343 | 4.0 | 7.0 | 0.00 | 0.16 | 0.16 | 1011.0 | |
| 20260508174149 | 0 | 359 | 4.0 | 7.0 | 0.00 | 0.16 | 0.16 | 1010.8 | |
| 20260508173646 | 0 | 325 | 4.0 | 6.0 | 0.00 | 0.16 | 0.16 | 1010.8 | |
| 20260508173143 | 0 | 329 | 6.0 | 7.0 | 0.00 | 0.16 | 0.16 | 1011.0 | |
| 20260508172640 | 0 | 293 | 7.0 | 9.0 | 0.00 | 0.16 | 0.16 | 1011.1 | |
| 20260508172136 | 0 | 229 | 1.0 | 4.0 | 0.00 | 0.16 | 0.16 | 1011.1 | |
| 20260508171633 | 0 | 236 | 3.0 | 9.0 | 0.00 | 0.16 | 0.16 | 1011.2 | |
| 20260508171129 | 0 | 301 | 7.0 | 11.0 | 0.00 | 0.16 | 0.16 | 1011.2 | |
| 20260508170627 | 0 | 240 | 6.0 | 8.0 | 0.00 | 0.16 | 0.16 | 1011.1 | |
| 20260508170124 | 0 | 237 | 5.0 | 8.0 | 0.00 | 0.16 | 0.16 | 1011.0 | |
| 20260508165621 | 0 | 255 | 3.0 | 11.0 | 0.00 | 0.16 | 0.16 | 1011.2 | |
| 20260508165118 | 0 | 251 | 6.0 | 9.0 | 0.00 | 0.16 | 0.16 | 1011.1 | |
| 20260508164614 | 0 | 269 | 4.0 | 8.0 | 0.00 | 0.16 | 0.16 | 1011.1 | |
| 20260508164111 | 0 | 225 | 2.0 | 7.0 | 0.00 | 0.16 | 0.16 | 1011.0 | |
| 20260508163609 | 0 | 242 | 4.0 | 4.0 | 0.00 | 0.16 | 0.16 | 1011.0 | |
| 20260508163105 | 0 | 307 | 2.0 | 4.0 | 0.00 | 0.16 | 0.16 | 1011.1 | |
| 20260508162602 | 0 | 313 | 4.0 | 6.0 | 0.00 | 0.16 | 0.16 | 1011.2 | |
| 20260508162059 | 0 | 143 | 0.0 | 2.0 | 0.00 | 0.16 | 0.16 | 1011.1 | |
| 20260508161556 | 0 | 231 | 3.0 | 4.0 | 0.00 | 0.16 | 0.16 | 1011.1 | |
| 20260508161054 | 0 | 313 | 2.0 | 4.0 | 0.00 | 0.16 | 0.16 | 1011.2 | |
| 20260508160552 | 0 | 324 | 3.0 | 6.0 | 0.00 | 0.16 | 0.16 | 1011.1 | |
| 20260508160048 | 0 | 273 | 2.0 | 3.0 | 0.00 | 0.16 | 0.16 | 1011.3 | |
| 20260508155546 | 0 | 140 | 3.0 | 4.0 | 0.00 | 0.16 | 0.16 | 1011.2 | |
| 20260508155043 | 0 | 247 | 3.0 | 4.0 | 0.00 | 0.16 | 0.16 | 1011.3 | |
| 20260508154540 | 0 | 217 | 3.0 | 3.0 | 0.00 | 0.16 | 0.16 | 1011.6 | |
| 20260508154036 | 0 | 146 | 1.0 | 3.0 | 0.00 | 0.16 | 0.16 | 1011.3 | |
| 20260508153533 | 0 | 225 | 1.0 | 1.0 | 0.00 | 0.16 | 0.16 | 1011.3 | |
| 20260508153030 | 0 | 242 | 1.0 | 6.0 | 0.00 | 0.16 | 0.16 | 1011.4 | |
| 20260508152527 | 0 | 287 | 4.0 | 6.0 | 0.00 | 0.16 | 0.16 | 1011.7 | |
| 20260508152022 | 0 | 244 | 2.0 | 4.0 | 0.00 | 0.16 | 0.16 | 1011.7 | |
| 20260508151519 | 0 | 311 | 4.0 | 4.0 | 0.00 | 0.16 | 0.16 | 1011.6 | |
| 20260508151016 | 0 | 320 | 1.0 | 4.0 | 0.00 | 0.16 | 0.16 | 1011.6 | |
| 20260508150513 | 0 | 261 | 2.0 | 3.0 | 0.07 | 0.16 | 0.16 | 1011.6 | |
| 20260508150009 | 0 | 320 | 0.0 | 2.0 | 0.07 | 0.16 | 0.16 | 1011.6 | |
| 20260508145506 | 0 | 249 | 1.0 | 2.0 | 0.00 | 0.15 | 0.15 | 1011.6 | |
| 20260508145002 | 0 | 259 | 4.0 | 4.0 | 0.05 | 0.15 | 0.15 | 1011.6 | |
| 20260508144459 | 0 | 245 | 1.0 | 2.0 | 0.05 | 0.15 | 0.15 | 1011.6 | |
| 20260508143957 | 0 | 325 | 4.0 | 6.0 | 0.00 | 0.14 | 0.14 | 1011.8 | |
| 20260508143454 | 0 | 339 | 6.0 | 8.0 | 0.00 | 0.14 | 0.14 | 1011.8 | |
| 20260508142950 | 0 | 306 | 2.0 | 3.0 | 0.00 | 0.14 | 0.14 | 1011.3 | |
| 20260508142448 | 0 | 210 | 0.0 | 0.0 | 0.00 | 0.14 | 0.14 | 1011.1 | |
| 20260508141944 | 0 | 182 | 2.0 | 2.0 | 0.00 | 0.14 | 0.14 | 1011.2 | |
| 20260508141441 | 0 | 227 | 0.0 | 2.0 | 0.00 | 0.14 | 0.14 | 1011.1 | |
| 20260508140939 | 0 | 203 | 0.0 | 0.0 | 0.07 | 0.14 | 0.14 | 1011.2 | |
| 20260508140435 | 0 | 199 | 1.0 | 2.0 | 0.07 | 0.14 | 0.14 | 1011.3 | |
| 20260508135931 | 0 | 265 | 2.0 | 4.0 | 0.00 | 0.13 | 0.13 | 1011.3 | |
| 20260508135428 | 0 | 213 | 4.0 | 4.0 | 0.12 | 0.13 | 0.13 | 1011.4 | |
| 20260508134924 | 0 | 198 | 2.0 | 3.0 | 0.19 | 0.12 | 0.12 | 1011.3 | |
| 20260508134420 | 0 | 327 | 5.0 | 9.0 | 0.24 | 0.11 | 0.11 | 1011.3 | |
| 20260508133918 | 0 | 294 | 10.0 | 13.0 | 0.12 | 0.08 | 0.08 | 1011.2 | |
| 20260508133415 | 0 | 292 | 4.0 | 6.0 | 0.12 | 0.07 | 0.07 | 1011.3 | |
| 20260508132912 | 0 | 289 | 5.0 | 8.0 | 0.12 | 0.05 | 0.05 | 1011.1 | |
| 20260508132410 | 0 | 273 | 2.0 | 4.0 | 0.19 | 0.05 | 0.05 | 1011.0 | |
| 20260508131906 | 0 | 223 | 2.0 | 7.0 | 0.12 | 0.03 | 0.03 | 1011.1 | |
| 20260508131402 | 0 | 4 | 1.0 | 2.0 | 0.05 | 0.02 | 0.02 | 1010.6 | |
| 20260508130859 | 0 | 210 | 2.0 | 3.0 | 0.07 | 0.01 | 0.01 | 1010.7 | |
| 20260508130355 | 0 | 257 | 2.0 | 7.0 | 0.00 | 0.00 | 0.00 | 1010.5 | |
| 20260508125851 | 0 | 201 | 4.0 | 4.0 | 0.00 | 0.00 | 0.00 | 1010.6 | |
| 20260508125348 | 0 | 160 | 1.0 | 1.0 | 0.00 | 0.00 | 0.00 | 1010.4 | |
| 20260508124846 | 0 | 149 | 1.0 | 1.0 | 0.00 | 0.00 | 0.00 | 1010.5 | |
| 20260508124343 | 0 | 127 | 2.0 | 3.0 | 0.00 | 0.00 | 0.00 | 1010.2 |